Time,TemperatureF,DewpointF,PressureIn,WindDirection,WindDirectionDegrees,WindSpeedMPH,WindSpeedGustMPH,Humidity,HourlyPrecipIn,Conditions,Clouds,dailyrainin,SoftwareType,DateUTC
2013-05-09 00:10:00,58.6,23.9,29.87,NNW,337,4.3,-999.0,26,-99.99,,,0.00,Acu-Link.com,2013-05-09 06:10:00,
2013-05-09 00:25:00,57.7,24.0,29.87,NNW,337,4.7,-999.0,27,-99.99,,,0.00,Acu-Link.com,2013-05-09 06:25:00,
2013-05-09 00:41:00,56.8,24.1,29.87,NNW,337,4.7,-999.0,28,-99.99,,,0.00,Acu-Link.com,2013-05-09 06:41:00,
2013-05-09 00:56:00,55.9,24.2,29.87,WNW,292,2.7,-999.0,29,-99.99,,,0.00,Acu-Link.com,2013-05-09 06:56:00,
2013-05-09 01:11:00,55.8,24.0,29.87,WNW,292,4.3,-999.0,29,-99.99,,,0.00,Acu-Link.com,2013-05-09 07:11:00,
2013-05-09 01:26:00,55.8,24.0,29.87,NW,315,4.3,-999.0,29,-99.99,,,0.00,Acu-Link.com,2013-05-09 07:26:00,
2013-05-09 01:41:00,55.6,23.8,29.87,West,270,5.1,-999.0,29,-99.99,,,0.00,Acu-Link.com,2013-05-09 07:41:00,
2013-05-09 01:57:00,55.2,23.5,29.88,NW,315,2.7,-999.0,29,-99.99,,,0.00,Acu-Link.com,2013-05-09 07:57:00,
2013-05-09 02:12:00,55.2,25.1,29.87,NW,315,5.1,-999.0,31,-99.99,,,0.00,Acu-Link.com,2013-05-09 08:12:00,
2013-05-09 02:27:00,55.6,25.4,29.86,West,270,3.8,-999.0,31,-99.99,,,0.00,Acu-Link.com,2013-05-09 08:27:00,
2013-05-09 02:42:00,56.1,25.9,29.87,North,0,4.3,-999.0,31,-99.99,,,0.00,Acu-Link.com,2013-05-09 08:42:00,
2013-05-09 02:58:00,55.9,25.8,29.87,NNE,22,2.7,-999.0,31,-99.99,,,0.00,Acu-Link.com,2013-05-09 08:58:00,
2013-05-09 03:13:00,55.8,25.6,29.87,West,270,5.1,-999.0,31,-99.99,,,0.00,Acu-Link.com,2013-05-09 09:13:00,
2013-05-09 03:28:00,54.7,25.4,29.87,WNW,292,2.7,-999.0,32,-99.99,,,0.00,Acu-Link.com,2013-05-09 09:28:00,
2013-05-09 03:43:00,52.9,26.0,29.87,NE,45,1.6,-999.0,35,-99.99,,,0.00,Acu-Link.com,2013-05-09 09:43:00,
2013-05-09 03:58:00,51.6,24.9,29.87,West,270,1.6,-999.0,35,-99.99,,,0.00,Acu-Link.com,2013-05-09 09:58:00,
2013-05-09 04:13:00,51.1,25.1,29.87,ENE,67,1.1,-999.0,36,-99.99,,,0.00,Acu-Link.com,2013-05-09 10:13:00,
2013-05-09 04:29:00,50.5,25.2,29.87,North,0,3.8,-999.0,37,-99.99,,,0.00,Acu-Link.com,2013-05-09 10:29:00,
2013-05-09 04:44:00,50.0,25.4,29.88,NNW,337,3.8,-999.0,38,-99.99,,,0.00,Acu-Link.com,2013-05-09 10:44:00,
2013-05-09 04:59:00,49.5,25.5,29.88,WNW,292,0.0,-999.0,39,-99.99,,,0.00,Acu-Link.com,2013-05-09 10:59:00,
2013-05-09 05:14:00,49.1,25.2,29.88,West,270,0.0,-999.0,39,-99.99,,,0.00,Acu-Link.com,2013-05-09 11:14:00,
2013-05-09 05:30:00,48.9,24.4,29.88,WSW,247,0.0,-999.0,38,-99.99,,,0.00,Acu-Link.com,2013-05-09 11:30:00,
2013-05-09 05:45:00,47.8,25.3,29.88,SSW,202,0.0,-999.0,41,-99.99,,,0.00,Acu-Link.com,2013-05-09 11:45:00,
2013-05-09 06:00:00,47.3,25.4,29.88,SSE,157,0.0,-999.0,42,-99.99,,,0.00,Acu-Link.com,2013-05-09 12:00:00,
2013-05-09 06:15:00,46.8,24.9,29.89,SSW,202,0.0,-999.0,42,-99.99,,,0.00,Acu-Link.com,2013-05-09 12:15:00,
2013-05-09 06:30:00,46.8,24.9,29.89,ENE,67,0.0,-999.0,42,-99.99,,,0.00,Acu-Link.com,2013-05-09 12:30:00,
2013-05-09 06:46:00,47.7,25.1,29.90,East,90,0.0,-999.0,41,-99.99,,,0.00,Acu-Link.com,2013-05-09 12:46:00,
2013-05-09 07:01:00,50.7,26.0,29.91,NNE,22,2.7,-999.0,38,-99.99,,,0.00,Acu-Link.com,2013-05-09 13:01:00,
2013-05-09 07:16:00,53.1,26.1,29.91,NNW,337,2.7,-999.0,35,-99.99,,,0.00,Acu-Link.com,2013-05-09 13:16:00,
2013-05-09 07:31:00,56.8,26.5,29.90,NE,45,4.3,-999.0,31,-99.99,,,0.00,Acu-Link.com,2013-05-09 13:31:00,
2013-05-09 07:46:00,59.0,26.8,29.91,NE,45,2.7,-999.0,29,-99.99,,,0.00,Acu-Link.com,2013-05-09 13:46:00,
2013-05-09 08:02:00,58.6,28.1,29.91,East,90,3.1,-999.0,31,-99.99,,,0.00,Acu-Link.com,2013-05-09 14:02:00,
2013-05-09 08:17:00,61.5,28.1,29.92,East,90,1.1,-999.0,28,-99.99,,,0.00,Acu-Link.com,2013-05-09 14:17:00,
2013-05-09 08:32:00,65.8,29.0,29.92,NNE,22,0.0,-999.0,25,-99.99,,,0.00,Acu-Link.com,2013-05-09 14:32:00,
2013-05-09 08:47:00,68.0,28.8,29.92,NNE,22,1.1,-999.0,23,-99.99,,,0.00,Acu-Link.com,2013-05-09 14:47:00,
2013-05-09 09:02:00,69.6,29.1,29.92,WNW,292,1.6,-999.0,22,-99.99,,,0.00,Acu-Link.com,2013-05-09 15:02:00,
2013-05-09 09:18:00,62.6,28.2,29.92,West,270,2.7,-999.0,27,-99.99,,,0.00,Acu-Link.com,2013-05-09 15:18:00,
2013-05-09 09:33:00,62.8,29.2,29.92,East,90,0.0,-999.0,28,-99.99,,,0.00,Acu-Link.com,2013-05-09 15:33:00,
2013-05-09 09:48:00,64.9,28.3,29.92,East,90,4.3,-999.0,25,-99.99,,,0.00,Acu-Link.com,2013-05-09 15:48:00,
2013-05-09 10:03:00,66.0,28.2,29.92,NNE,22,2.7,-999.0,24,-99.99,,,0.00,Acu-Link.com,2013-05-09 16:03:00,
2013-05-09 10:19:00,67.3,29.3,29.92,NE,45,5.8,-999.0,24,-99.99,,,0.00,Acu-Link.com,2013-05-09 16:19:00,
2013-05-09 10:34:00,66.2,27.3,29.92,North,0,1.1,-999.0,23,-99.99,,,0.00,Acu-Link.com,2013-05-09 16:34:00,
2013-05-09 10:49:00,67.1,27.0,29.92,NNE,22,3.8,-999.0,22,-99.99,,,0.00,Acu-Link.com,2013-05-09 16:49:00,
2013-05-09 11:04:00,68.0,27.7,29.91,West,270,3.1,-999.0,22,-99.99,,,0.00,Acu-Link.com,2013-05-09 17:04:00,
2013-05-09 11:19:00,70.3,28.6,29.91,SSE,157,6.3,-999.0,21,-99.99,,,0.00,Acu-Link.com,2013-05-09 17:19:00,
2013-05-09 11:35:00,70.0,28.3,29.91,NNE,22,2.7,-999.0,21,-99.99,,,0.00,Acu-Link.com,2013-05-09 17:35:00,
2013-05-09 11:50:00,72.9,28.2,29.90,NNE,22,5.8,-999.0,19,-99.99,,,0.00,Acu-Link.com,2013-05-09 17:50:00,
2013-05-09 12:05:00,73.9,29.1,29.90,SW,225,2.7,-999.0,19,-99.99,,,0.00,Acu-Link.com,2013-05-09 18:05:00,
2013-05-09 12:20:00,73.0,27.0,29.89,SW,225,5.8,-999.0,18,-99.99,,,0.00,Acu-Link.com,2013-05-09 18:20:00,
2013-05-09 12:35:00,77.7,27.9,29.89,SSW,202,1.6,-999.0,16,-99.99,,,0.00,Acu-Link.com,2013-05-09 18:35:00,
2013-05-09 12:51:00,70.9,25.3,29.89,WSW,247,7.4,-999.0,18,-99.99,,,0.00,Acu-Link.com,2013-05-09 18:51:00,
2013-05-09 13:06:00,71.1,24.0,29.88,West,270,2.2,-999.0,17,-99.99,,,0.00,Acu-Link.com,2013-05-09 19:06:00,
2013-05-09 13:21:00,73.4,22.9,29.87,West,270,4.3,-999.0,15,-99.99,,,0.00,Acu-Link.com,2013-05-09 19:21:00,
2013-05-09 13:36:00,72.7,25.4,29.87,ESE,112,2.7,-999.0,17,-99.99,,,0.00,Acu-Link.com,2013-05-09 19:36:00,
2013-05-09 13:51:00,71.6,24.5,29.87,SE,135,4.3,-999.0,17,-99.99,,,0.00,Acu-Link.com,2013-05-09 19:51:00,
2013-05-09 14:07:00,72.3,26.4,29.87,NE,45,8.3,-999.0,18,-99.99,,,0.00,Acu-Link.com,2013-05-09 20:07:00,
2013-05-09 14:22:00,71.4,25.7,29.86,East,90,5.8,-999.0,18,-99.99,,,0.00,Acu-Link.com,2013-05-09 20:22:00,
2013-05-09 14:37:00,72.9,26.9,29.86,SW,225,3.8,-999.0,18,-99.99,,,0.00,Acu-Link.com,2013-05-09 20:37:00,
2013-05-09 14:52:00,74.8,25.6,29.84,ESE,112,6.7,-999.0,16,-99.99,,,0.00,Acu-Link.com,2013-05-09 20:52:00,
2013-05-09 15:08:00,72.5,23.8,29.84,SSE,157,5.1,-999.0,16,-99.99,,,0.00,Acu-Link.com,2013-05-09 21:08:00,
2013-05-09 15:23:00,73.0,25.6,29.84,East,90,5.8,-999.0,17,-99.99,,,0.00,Acu-Link.com,2013-05-09 21:23:00,
2013-05-09 15:38:00,72.3,23.6,29.83,NE,45,4.3,-999.0,16,-99.99,,,0.00,Acu-Link.com,2013-05-09 21:38:00,
2013-05-09 15:53:00,72.7,25.4,29.83,East,90,1.6,-999.0,17,-99.99,,,0.00,Acu-Link.com,2013-05-09 21:53:00,
2013-05-09 16:08:00,73.9,23.4,29.82,NNW,337,2.2,-999.0,15,-99.99,,,0.00,Acu-Link.com,2013-05-09 22:08:00,
2013-05-09 16:24:00,76.3,25.2,29.82,ESE,112,4.7,-999.0,15,-99.99,,,0.00,Acu-Link.com,2013-05-09 22:24:00,
2013-05-09 16:39:00,74.1,23.5,29.83,ESE,112,4.3,-999.0,15,-99.99,,,0.00,Acu-Link.com,2013-05-09 22:39:00,
2013-05-09 16:54:00,72.9,24.0,29.83,SSE,157,3.1,-999.0,16,-99.99,,,0.00,Acu-Link.com,2013-05-09 22:54:00,
2013-05-09 17:09:00,71.8,24.6,29.82,SE,135,4.3,-999.0,17,-99.99,,,0.00,Acu-Link.com,2013-05-09 23:09:00,
2013-05-09 17:24:00,71.8,24.6,29.83,ENE,67,1.6,-999.0,17,-99.99,,,0.00,Acu-Link.com,2013-05-09 23:24:00,
2013-05-09 17:40:00,71.1,25.4,29.82,NE,45,2.7,-999.0,18,-99.99,,,0.00,Acu-Link.com,2013-05-09 23:40:00,
2013-05-09 17:55:00,71.2,25.6,29.83,North,0,4.7,-999.0,18,-99.99,,,0.00,Acu-Link.com,2013-05-09 23:55:00,
2013-05-09 18:10:00,73.9,26.4,29.83,WNW,292,5.8,-999.0,17,-99.99,,,0.00,Acu-Link.com,2013-05-10 00:10:00,
2013-05-09 18:25:00,75.2,27.4,29.83,NNW,337,4.3,-999.0,17,-99.99,,,0.00,Acu-Link.com,2013-05-10 00:25:00,
2013-05-09 18:40:00,72.0,24.8,29.83,NW,315,11.0,-999.0,17,-99.99,,,0.00,Acu-Link.com,2013-05-10 00:40:00,
2013-05-09 18:56:00,69.1,25.1,29.83,WNW,292,3.1,-999.0,19,-99.99,,,0.00,Acu-Link.com,2013-05-10 00:56:00,
2013-05-09 19:11:00,67.8,26.5,29.83,North,0,6.3,-999.0,21,-99.99,,,0.00,Acu-Link.com,2013-05-10 01:11:00,
2013-05-09 19:26:00,67.3,26.0,29.83,WNW,292,4.7,-999.0,21,-99.99,,,0.00,Acu-Link.com,2013-05-10 01:26:00,
2013-05-09 19:41:00,66.6,28.6,29.85,NW,315,7.8,-999.0,24,-99.99,,,0.00,Acu-Link.com,2013-05-10 01:41:00,
2013-05-09 19:57:00,66.2,28.3,29.85,NW,315,7.4,-999.0,24,-99.99,,,0.00,Acu-Link.com,2013-05-10 01:57:00,
2013-05-09 20:12:00,65.1,30.3,29.87,North,0,14.5,-999.0,27,-99.99,,,0.00,Acu-Link.com,2013-05-10 02:12:00,
2013-05-09 20:27:00,64.4,29.7,29.88,North,0,11.0,-999.0,27,-99.99,,,0.00,Acu-Link.com,2013-05-10 02:27:00,
2013-05-09 20:42:00,64.4,29.7,29.88,NNW,337,11.0,-999.0,27,-99.99,,,0.00,Acu-Link.com,2013-05-10 02:42:00,
2013-05-09 20:57:00,64.2,29.5,29.88,East,90,5.8,-999.0,27,-99.99,,,0.00,Acu-Link.com,2013-05-10 02:57:00,
2013-05-09 21:13:00,63.9,29.2,29.89,WNW,292,4.7,-999.0,27,-99.99,,,0.00,Acu-Link.com,2013-05-10 03:13:00,
2013-05-09 21:28:00,63.0,29.4,29.90,NE,45,5.8,-999.0,28,-99.99,,,0.00,Acu-Link.com,2013-05-10 03:28:00,
2013-05-09 21:43:00,62.4,29.7,29.90,NE,45,4.3,-999.0,29,-99.99,,,0.00,Acu-Link.com,2013-05-10 03:43:00,
2013-05-09 21:58:00,62.1,30.3,29.91,NE,45,4.3,-999.0,30,-99.99,,,0.00,Acu-Link.com,2013-05-10 03:58:00,
2013-05-09 22:13:00,61.7,30.0,29.92,East,90,3.8,-999.0,30,-99.99,,,0.00,Acu-Link.com,2013-05-10 04:13:00,
2013-05-09 22:29:00,61.9,30.9,29.95,WSW,247,4.7,-999.0,31,-99.99,,,0.00,Acu-Link.com,2013-05-10 04:29:00,
2013-05-09 22:44:00,62.4,28.9,29.95,West,270,9.8,-999.0,28,-99.99,,,0.00,Acu-Link.com,2013-05-10 04:44:00,
2013-05-09 22:59:00,61.5,32.9,29.96,West,270,9.4,-999.0,34,-99.99,,,0.00,Acu-Link.com,2013-05-10 04:59:00,
2013-05-09 23:14:00,61.2,31.8,29.96,WNW,292,3.1,-999.0,33,-99.99,,,0.00,Acu-Link.com,2013-05-10 05:14:00,
2013-05-09 23:29:00,61.2,31.8,29.97,NW,315,6.7,-999.0,33,-99.99,,,0.00,Acu-Link.com,2013-05-10 05:29:00,
2013-05-09 23:45:00,60.6,32.8,29.98,South,180,5.1,-999.0,35,-99.99,,,0.00,Acu-Link.com,2013-05-10 05:45:00,